[[{"header":{"parameterUnit":"m.s-1","parameterCategory":1,"la1":30.2991,"la2":30.254,"lo1":-89.0895,"lo2":-89.0444,"dy":0.0017,"dx":0.0017,"nx":28,"ny":28,"refTime":"2024-07-19T09:00:00:Z","depth":0,"parameterNumber":2,"parameterNumberName":"U-component_of_WINDS"},"data":[0,0,0,0,0,0,0,0,0,0,0,0,0,0,0,0,0,0,0,0,0,0,0,0,0,0,0,0,0,0,0,0,0,0,0,0,0,0,0,0,0,0,0,0,0,0,0,0,0,0,0,0,0,0,0,0,0,0,-1.097,-1.0969,0,-1.0896,-1.0895,-1.0894,-1.0814,-1.0813,-1.0812,-1.081,-1.0734,-1.0733,-1.0733,0,0,0,0,0,0,0,0,0,0,0,0,0,-1.1042,-1.1041,-1.097,-1.0969,-1.0968,-1.0896,-1.0895,-1.0894,-1.0814,-1.0813,-1.0811,-1.081,-1.0735,-1.0734,-1.0732,0,0,0,0,0,0,0,0,0,0,0,0,0,-1.0993,-1.1041,-1.097,-1.092,-1.0914,-1.0896,-1.0895,-1.0894,-1.0814,-1.0813,-1.0811,-1.0809,-1.0735,-1.0734,-1.0732,-1.0758,0,0,-1.0728,-1.0727,0,0,0,0,0,0,0,0,-1.0996,-1.0991,-1.0928,-1.0923,-1.0917,-1.0862,-1.0892,-1.0848,-1.0815,-1.0852,-1.081,-1.0808,-1.0778,-1.0773,-1.0763,-1.0754,-1.0751,-1.0728,-1.0727,-1.0726,-1.0726,0,0,0,0,0,0,0,-1.1,-1.0994,-1.0941,-1.0927,-1.0921,-1.09,-1.0892,-1.0883,-1.0826,-1.0849,-1.0843,-1.0835,-1.0775,-1.0765,-1.0761,-1.075,-1.0728,-1.0726,-1.0726,-1.0725,-1.0756,-1.0758,0,0,0,0,0,0,-1.1011,-1.0997,-1.0943,-1.0938,-1.0953,-1.09,-1.0891,-1.0882,-1.0826,-1.0816,-1.0837,-1.0832,-1.0768,-1.0762,-1.0758,-1.0783,-1.0726,-1.0725,-1.0724,-1.0755,-1.0757,-1.0758,0,0,0,0,0,0,-1.1013,-1.1007,-1.0946,-1.0966,-1.0957,-1.0901,-1.0892,-1.0881,-1.0871,-1.0817,-1.0806,-1.0837,-1.0766,-1.076,-1.0758,-1.0779,-1.0724,-1.0723,-1.0753,-1.0755,-1.0758,-1.0834,0,0,0,0,0,0,-1.1015,-1.1008,-1.1017,-1.0967,-1.0956,-1.0948,-1.0893,-1.0881,-1.0868,-1.0861,-1.0814,-1.0804,-1.0765,-1.0761,-1.0757,-1.0776,-1.0722,-1.075,-1.0754,-1.0757,-1.0829,-1.0838,-1.0847,0,0,0,0,0,-1.1018,-1.1042,-1.1018,-1.1012,-1.0967,-1.0949,-1.0943,-1.0897,-1.087,-1.0879,-1.0844,-1.0806,-1.0777,-1.0761,-1.0756,-1.0775,-1.0749,-1.0753,-1.0757,-1.0825,-1.0837,-1.0846,0,0,0,0,0,0,-1.1097,-1.1034,-1.1007,-1.1016,-1.0989,-1.0936,-1.0945,-1.0911,-1.089,-1.0885,-1.0828,-1.0818,-1.0823,-1.0799,-1.0781,-1.0796,-1.0758,-1.0761,-1.0811,-1.0822,-1.0831,-1.0836,-1.0721,0,0,0,0,0,-1.1115,-1.1106,-1.1052,-1.1065,-1.1053,-1.1002,-1.0993,-1.0959,-1.0929,-1.0917,-1.0881,-1.0853,-1.0837,-1.0828,-1.0811,-1.0825,-1.0813,-1.0836,-1.0845,-1.0852,-1.0855,-1.0859,-1.0868,-1.0771,-1.0771,-1.0771,0,0,-1.1153,-1.1118,-1.1116,-1.108,-1.1055,-1.1047,-1.0993,-1.0987,-1.098,-1.0916,-1.0911,-1.0885,-1.0849,-1.0855,-1.0856,-1.0835,-1.0879,-1.0857,-1.0863,-1.0862,-1.0864,-1.0874,-1.0882,-1.0774,-1.0773,-1.0773,0,0,-1.1217,-1.1191,-1.1197,-1.1173,-1.1136,-1.1101,-1.1103,-1.1055,-1.1035,-1.103,-1.0981,-1.0972,-1.0947,-1.0923,-1.0908,-1.0963,-1.0926,-1.0959,-1.1005,-1.1009,-1.1017,-1.1024,-1.1042,-1.1049,-1.0962,-1.0962,-1.0962,0,-1.1269,-1.1255,-1.1205,-1.1202,-1.1187,-1.1129,-1.1135,-1.1114,-1.1073,-1.1064,-1.1041,-1.1007,-1.0979,-1.0978,-1.0991,-1.0981,-1.0981,-1.0964,-1.102,-1.1026,-1.1031,-1.1048,-1.1055,-1.0966,-1.0966,-1.0966,-1.0965,0,-1.132,-1.1311,-1.1321,-1.1282,-1.1269,-1.1271,-1.1221,-1.1213,-1.1181,-1.1149,-1.1144,-1.1108,-1.1082,-1.1079,-1.1048,-1.1073,-1.1061,-1.1031,-1.0991,-1.1046,-1.106,-1.1067,-1.0972,-1.0971,-1.097,-1.0969,0,0,-1.1432,-1.1365,-1.137,-1.1351,-1.1305,-1.1297,-1.1296,-1.127,-1.1264,-1.1237,-1.1234,-1.1214,-1.1184,-1.1167,-1.1132,-1.1137,-1.1181,-1.1104,-1.1103,-1.1119,-1.1205,-1.1228,-1.1237,-1.1156,-1.1157,-1.1158,-1.1208,0,-1.1488,-1.1482,-1.1437,-1.1443,-1.1434,-1.1377,-1.1376,-1.1347,-1.1317,-1.1304,-1.1271,-1.1257,-1.122,-1.1209,-1.121,-1.1175,-1.1197,-1.1171,-1.1152,-1.1152,-1.1162,-1.1244,-1.1269,-1.1317,-1.1213,-1.1214,-1.1215,0,-1.1552,-1.1529,-1.1535,-1.1488,-1.1482,-1.1482,-1.1454,-1.1442,-1.1408,-1.1386,-1.1366,-1.1327,-1.1322,-1.1285,-1.1276,-1.1259,-1.1248,-1.123,-1.1231,-1.1226,-1.1186,-1.1242,-1.1332,-1.1339,-1.1224,-1.1223,-1.1222,0,-1.1632,-1.1603,-1.1602,-1.1588,-1.1533,-1.1534,-1.1511,-1.1475,-1.1462,-1.1438,-1.1429,-1.1404,-1.1391,-1.1373,-1.1328,-1.1305,-1.1323,-1.1283,-1.1304,-1.1305,-1.131,-1.131,-1.1399,-1.1305,-1.1305,-1.1305,-1.1305,0,-1.1699,-1.1704,-1.1637,-1.1636,-1.164,-1.1588,-1.1594,-1.1565,-1.1534,-1.1526,-1.1477,-1.1471,-1.1412,-1.1399,-1.1364,-1.1361,-1.1355,-1.1337,-1.1327,-1.1341,-1.1343,-1.1332,-1.1328,-1.1306,-1.1306,-1.1306,-1.1305,0,-1.1789,-1.1744,-1.1739,-1.1687,-1.1675,-1.168,-1.1635,-1.1632,-1.1599,-1.159,-1.1585,-1.1532,-1.1514,-1.1468,-1.1438,-1.1414,-1.1421,-1.1404,-1.1432,-1.1426,-1.1449,-1.1447,-1.1534,-1.1542,-1.1444,-1.1445,-1.1446,0,-1.1834,-1.1836,-1.1785,-1.1776,-1.1755,-1.1742,-1.1729,-1.1677,-1.1665,-1.1626,-1.1627,-1.1606,-1.1585,-1.1559,-1.1518,-1.1494,-1.1476,-1.1508,-1.1472,-1.1485,-1.1475,-1.1475,-1.1474,-1.1515,-1.1517,-1.1518,-1.1519,0,-1.1918,-1.1896,-1.1878,-1.1852,-1.1838,-1.1815,-1.179,-1.1785,-1.1727,-1.1716,-1.1697,-1.1681,-1.165,-1.1629,-1.1599,-1.1574,-1.1537,-1.153,-1.1533,-1.1547,-1.1563,-1.1554,-1.1453,-1.1528,-1.1527,-1.1527,-1.1526,-1.1526,-1.1986,-1.1985,-1.1949,-1.193,-1.1906,-1.1883,-1.1877,-1.1843,-1.1826,-1.1797,-1.1768,-1.1751,-1.1716,-1.1672,-1.165,-1.1636,-1.1616,-1.1622,-1.1623,-1.1625,-1.163,-1.1566,-1.163,-1.163,-1.163,-1.163,-1.1629,0,-1.2067,-1.204,-1.2024,-1.199,-1.1975,-1.1941,-1.1911,-1.1901,-1.1887,-1.1858,-1.1838,-1.1816,-1.1794,-1.1752,-1.1726,-1.1723,-1.1705,-1.1718,-1.1717,-1.1712,-1.165,-1.1649,-1.1733,-1.1733,-1.1733,-1.1733,-1.1733,-1.1733,-1.2107,-1.2104,-1.2077,-1.2061,-1.2034,-1.2018,-1.2003,-1.1981,-1.1957,-1.1934,-1.1916,-1.1888,-1.1853,-1.1824,-1.1803,-1.1791,-1.1783,-1.1802,-1.1784,-1.1727,-1.1717,-1.1707,-1.1706,-1.1801,-1.1801,-1.1847,-1.1847,-1.1848]},{"header":{"parameterUnit":"m.s-1","parameterCategory":1,"la1":30.2991,"la2":30.254,"lo1":-89.0895,"lo2":-89.0444,"dy":0.0017,"dx":0.0017,"nx":28,"ny":28,"refTime":"2024-07-19T09:00:00:Z","depth":0,"parameterNumber":3,"parameterNumberName":"V-component_of_WINDS"},"data":[0,0,0,0,0,0,0,0,0,0,0,0,0,0,0,0,0,0,0,0,0,0,0,0,0,0,0,0,0,0,0,0,0,0,0,0,0,0,0,0,0,0,0,0,0,0,0,0,0,0,0,0,0,0,0,0,0,0,0.0211,0.021,0,0.0083,0.0082,0.008,-0.0025,-0.0026,-0.0027,-0.0028,-0.0159,-0.0161,-0.0164,0,0,0,0,0,0,0,0,0,0,0,0,0,0.0364,0.0362,0.0211,0.021,0.0208,0.0084,0.0082,0.008,-0.0025,-0.0026,-0.0027,-0.0029,-0.0158,-0.0161,-0.0164,0,0,0,0,0,0,0,0,0,0,0,0,0,0.0273,0.0361,0.0211,0.0141,0.0133,0.0084,0.0082,0.008,-0.0024,-0.0026,-0.0028,-0.0029,-0.0157,-0.0161,-0.0164,-0.0154,0,0,-0.0176,-0.0177,0,0,0,0,0,0,0,0,0.0278,0.0268,0.0153,0.0145,0.0137,0.0043,0.0088,0.0001,-0.0024,0.0035,-0.0028,-0.003,-0.009,-0.0099,-0.012,-0.016,-0.0165,-0.0176,-0.0178,-0.018,-0.0181,0,0,0,0,0,0,0,0.0285,0.0272,0.0161,0.0151,0.0141,0.0115,0.01,0.0071,-0.0016,0.003,0.0022,0.0009,-0.0095,-0.0116,-0.0124,-0.0167,-0.0176,-0.0179,-0.0181,-0.0183,-0.0205,-0.0203,0,0,0,0,0,0,0.0302,0.0278,0.0165,0.0157,0.0205,0.0114,0.0097,0.0075,-0.0016,-0.0032,0.001,0.0004,-0.0109,-0.0119,-0.0129,-0.0122,-0.018,-0.0183,-0.0185,-0.0206,-0.0204,-0.0203,0,0,0,0,0,0,0.0306,0.0293,0.017,0.0215,0.0198,0.0113,0.0089,0.0074,0.0052,-0.0032,-0.0048,0.0005,-0.0111,-0.0123,-0.0147,-0.0128,-0.0185,-0.0188,-0.0208,-0.0206,-0.0204,-0.0107,0,0,0,0,0,0,0.0311,0.0295,0.0298,0.0216,0.0196,0.0155,0.009,0.0072,0.0046,0.0037,-0.0041,-0.0056,-0.0113,-0.014,-0.015,-0.0134,-0.0191,-0.021,-0.0207,-0.0204,-0.0113,-0.0102,-0.0093,0,0,0,0,0,0.0316,0.033,0.0299,0.0286,0.0198,0.0156,0.0144,0.0078,0.0048,0.0051,-0.0003,-0.0053,-0.0128,-0.0142,-0.0154,-0.0138,-0.0212,-0.0208,-0.0205,-0.0117,-0.0104,-0.0093,0,0,0,0,0,0,0.0417,0.0318,0.0282,0.027,0.0222,0.0138,0.014,0.0094,0.0053,0.0046,-0.0035,-0.0051,-0.0065,-0.0105,-0.0118,-0.0133,-0.0177,-0.0175,-0.0106,-0.0094,-0.0085,-0.0074,-0.0194,0,0,0,0,0,0.0438,0.0412,0.0327,0.0324,0.0302,0.0225,0.0204,0.0157,0.0104,0.0083,0.0027,-0.0022,-0.0057,-0.0078,-0.0115,-0.0119,-0.0138,-0.0114,-0.0105,-0.0096,-0.0093,-0.0098,-0.0088,-0.0191,-0.0191,-0.0191,0,0,0.048,0.0423,0.0412,0.0343,0.03,0.0275,0.0209,0.0185,0.0166,0.0079,0.0055,0.0012,-0.0049,-0.0062,-0.0071,-0.0095,-0.0069,-0.0091,-0.0084,-0.0086,-0.0093,-0.0083,-0.0074,-0.0188,-0.0189,-0.0189,0,0,0.0546,0.0499,0.0493,0.0451,0.0387,0.0336,0.0334,0.0257,0.0225,0.0199,0.0134,0.011,0.0051,0.001,-0.0018,0.0032,-0.0015,0.0022,0.0074,0.0071,0.0079,0.0086,0.0105,0.0112,0.0025,0.0025,0.0025,0,0.0607,0.0567,0.0495,0.0475,0.0447,0.0368,0.036,0.0323,0.0251,0.0233,0.0207,0.0132,0.0085,0.0061,0.0074,0.0053,0.0049,0.0031,0.0083,0.009,0.0095,0.0112,0.0119,0.003,0.0029,0.0029,0.0028,0,0.0646,0.0619,0.0621,0.0553,0.0525,0.0511,0.0437,0.0417,0.0373,0.0324,0.0299,0.024,0.019,0.018,0.0136,0.0151,0.0138,0.0099,0.0053,0.0111,0.0126,0.0132,0.0037,0.0035,0.0034,0.0033,0,0,0.0772,0.0664,0.0666,0.0635,0.0558,0.0536,0.0519,0.047,0.0455,0.0407,0.0391,0.0343,0.0306,0.0274,0.0225,0.0222,0.0266,0.0182,0.018,0.0201,0.0279,0.0311,0.0319,0.0233,0.0234,0.0235,0.0285,0,0.0826,0.0791,0.0726,0.0712,0.0686,0.061,0.0595,0.0547,0.0501,0.0472,0.0421,0.0389,0.0342,0.0323,0.0316,0.0262,0.0281,0.0257,0.0219,0.0218,0.0238,0.0327,0.036,0.041,0.029,0.0291,0.0291,0,0.0885,0.0842,0.0826,0.0751,0.0738,0.0726,0.0676,0.0649,0.0592,0.0559,0.0524,0.0469,0.0447,0.0404,0.0373,0.0359,0.0339,0.031,0.031,0.0305,0.026,0.0326,0.0424,0.0432,0.03,0.0299,0.0298,0,0.0981,0.0918,0.0901,0.0876,0.0788,0.0781,0.0744,0.0685,0.0661,0.0617,0.06,0.0554,0.0529,0.0495,0.043,0.0404,0.0406,0.0358,0.0379,0.0381,0.0384,0.0385,0.0482,0.0369,0.0369,0.0369,0.0368,0,0.1049,0.1042,0.0943,0.0932,0.0922,0.0847,0.0839,0.0795,0.0744,0.0723,0.0654,0.0636,0.055,0.0523,0.0471,0.0454,0.0443,0.0416,0.0403,0.0423,0.0427,0.041,0.0406,0.037,0.037,0.037,0.0369,0,0.1155,0.1088,0.1064,0.0982,0.0961,0.0958,0.0888,0.0875,0.0824,0.0799,0.0789,0.071,0.0674,0.0605,0.0549,0.0515,0.0509,0.0485,0.0529,0.0521,0.0547,0.0546,0.0637,0.0646,0.0527,0.0528,0.0529,0,0.1204,0.1197,0.1114,0.1096,0.1062,0.1032,0.1006,0.0931,0.0907,0.0842,0.0837,0.0795,0.0758,0.0704,0.0641,0.0599,0.0574,0.0609,0.0567,0.0588,0.0576,0.0578,0.0578,0.0619,0.0621,0.0622,0.0623,0,0.1298,0.1265,0.123,0.1184,0.1155,0.1115,0.1072,0.106,0.0975,0.0952,0.0914,0.0885,0.0828,0.0788,0.0736,0.0697,0.0647,0.0636,0.0639,0.0661,0.0688,0.0675,0.0557,0.0635,0.0634,0.0633,0.0632,0.0632,0.1377,0.1368,0.1309,0.1273,0.1232,0.1193,0.1177,0.1124,0.1091,0.104,0.0997,0.0963,0.0906,0.0831,0.0795,0.0768,0.0743,0.0747,0.0749,0.0751,0.076,0.0691,0.0758,0.0757,0.0757,0.0757,0.0756,0,0.1469,0.1427,0.1395,0.1336,0.1308,0.1261,0.1211,0.119,0.1161,0.1112,0.1077,0.1034,0.0994,0.0929,0.0884,0.0875,0.0851,0.0866,0.0867,0.0859,0.0784,0.0787,0.0886,0.0886,0.0886,0.0886,0.0886,0.0886,0.1514,0.1496,0.1457,0.1418,0.1375,0.1342,0.1317,0.128,0.1241,0.1196,0.1163,0.112,0.1065,0.1015,0.0977,0.0959,0.0946,0.097,0.0945,0.0876,0.0864,0.0852,0.0855,0.0967,0.0967,0.1022,0.1022,0.1023]}]]